This demonstration page uses our WeatherBlox Daily Observations layout. Learn more.

Hourly Observations for April 2, 2020

Temp ( °F °C ) Dew Point ( °F °C ) Humidity (%) Winds ( mph kmh ) Pressure ( in mb ) Visibility ( mi km ) Precip ( " mm )
12:15 am 00:15 Clear 56 13.2 47 8.2 72 72 SSE 12 19 29.65 1004 10 16.0934 0 0
12:35 am 00:35 Clear 55 13 47 8.1 72 72 NNE 5 7 29.67 1005 10 16.0934 0 0
12:55 am 00:55 Clear 54 12.4 47 8.2 76 76 E 10 17 29.67 1005 10 16.0934 0 0
1:15 am 01:15 Clear 55 12.6 46 8 74 74 Calm 29.69 1005 10 16.0934 0 0
1:35 am 01:35 Clear 51 10.5 45 7.4 81 81 ENE 6 9 29.71 1006 10 16.0934 0 0
1:55 am 01:55 Clear 51 10.3 45 7.2 81 81 N 8 13 29.72 1006 10 16.0934 0 0
2:15 am 02:15 Clear 49 9.4 45 7.1 86 86 N 10 17 29.73 1007 10 16.0934 0 0
2:35 am 02:35 Partly Cloudy 50 10 46 7.6 85 85 NNE 9 15 29.73 1007 10 16.0934 0 0
2:55 am 02:55 Cloudy 48 8.7 43 6 83 83 N 17 28 29.75 1008 10 16.0934 0 0
3:15 am 03:15 Cloudy 45 7 41 4.8 86 86 NNE 18 30 29.77 1008 10 16.0934 0 0
3:35 am 03:35 Cloudy 44 6.4 40 4.5 88 88 NNE 16 26 29.78 1009 10 16.0934 0 0
3:55 am 03:55 Cloudy 42 5.8 39 4.1 89 89 NNE 18 30 29.79 1009 7 11.26538 0 0
4:15 am 04:15 Cloudy 42 5.3 39 3.7 90 90 N 18 30 29.8 1009 7 11.26538 0 0
4:35 am 04:35 Cloudy 40 4.3 37 2.8 90 90 NNE 21 33 29.81 1010 7 11.26538 0 0
4:55 am 04:55 Cloudy 38 3.6 36 2.2 91 91 NNE 21 33 29.82 1010 7 11.26538 0 0
5:15 am 05:15 Cloudy 38 3.1 35 1.9 92 92 N 18 30 29.83 1010 7 11.26538 0 0
5:35 am 05:35 Cloudy 37 3 35 1.6 91 91 NNE 16 26 29.83 1010 7 11.26538 0 0
5:55 am 05:55 Cloudy with Nearby Thunderstorms 37 2.6 34 1.3 91 91 N 18 30 29.84 1010 7 11.26538 0 0
6:15 am 06:15 Cloudy 35 1.6 33 0.4 92 92 N 23 37 29.86 1011 7 11.26538 0 0
6:35 am 06:35 Cloudy 34 1.1 32 0.1 93 93 N 20 31 29.87 1012 7 11.26538 0 0
6:55 am 06:55 Cloudy with Mist and Fog 33 0.6 32 0 96 96 N 16 26 29.89 1012 5 8.0467 0 0
7:15 am 07:15 Cloudy with Light Wintry Mix 32 0.1 31 -0.3 97 97 N 20 31 29.91 1013 4 6.43736 0 0
7:35 am 07:35 Cloudy with Mist and Fog 32 0 31 -0.6 96 96 N 20 31 29.92 1013 4 6.43736 0 0
7:55 am 07:55 Cloudy with Mist and Fog 32 -0.2 30 -0.9 95 95 N 20 31 29.93 1013 4 6.43736 0 0
8:15 am 08:15 Cloudy with Mist and Fog 31 -0.5 30 -1.1 96 96 N 20 31 29.95 1014 3 4.82802 0 0
8:35 am 08:35 Cloudy with Light Wintry Mix 31 -0.6 29 -1.4 94 94 N 23 37 29.95 1014 2.5 4.02335 0 0
8:55 am 08:55 Cloudy with Light Wintry Mix 30 -1.1 28 -2 94 94 N 23 37 29.96 1015 2.5 4.02335 0 0
9:15 am 09:15 Cloudy with Mist and Fog 29 -1.5 28 -2.3 94 94 N 22 35 29.98 1015 2.5 4.02335 0 0
9:35 am 09:35 Cloudy with Mist and Fog 29 -1.5 28 -2.3 94 94 N 20 31 29.98 1015 3 4.82802 0 0
9:55 am 09:55 Cloudy with Light Wintry Mix 29 -1.6 28 -2.5 94 94 N 20 31 29.99 1016 2.5 4.02335 0 0
10:15 am 10:15 Cloudy with Light Wintry Mix 29 -1.6 28 -2.5 94 94 N 18 30 29.99 1016 3 4.82802 0 0
10:35 am 10:35 Cloudy with Mist and Fog 29 -1.9 27 -2.8 94 94 N 17 28 30 1016 3 4.82802 0 0
10:55 am 10:55 Cloudy with Mist and Fog 28 -2.2 26 -3.1 94 94 N 22 35 30.02 1016 4 6.43736 0 0
11:15 am 11:15 Cloudy with Mist and Fog 28 -2.2 26 -3.1 94 94 N 20 31 30.02 1016 3 4.82802 0 0
11:35 am 11:35 Cloudy with Mist and Fog 27 -3 25 -4 93 93 N 16 26 30.04 1017 2.5 4.02335 0 0
11:55 am 11:55 Cloudy with Light Snow 27 -2.7 25 -3.7 93 93 N 16 26 30.04 1017 2.5 4.02335 0 0
12:15 pm 12:15 Cloudy with Light Snow 27 -3 25 -4.1 92 92 N 16 26 30.04 1017 2 3.21868 0 0
12:35 pm 12:35 Cloudy with Light Snow 26 -3.2 24 -4.3 92 92 N 14 22 30.06 1018 2.5 4.02335 0 0
12:55 pm 12:55 Cloudy with Light Snow 26 -3.4 24 -4.5 92 92 N 17 28 30.07 1018 2 3.21868 0 0
1:15 pm 13:15 Cloudy with Mist and Fog 26 -3.5 24 -4.6 92 92 N 17 28 30.08 1019 2 3.21868 0 0
1:35 pm 13:35 Cloudy with Mist and Fog 25 -3.8 23 -5 91 91 N 16 26 30.08 1019 2.5 4.02335 0 0
1:55 pm 13:55 Cloudy with Mist and Fog 25 -3.8 23 -5 91 91 N 14 22 30.08 1019 3 4.82802 0 0
2:15 pm 14:15 Cloudy with Mist and Fog 25 -3.9 23 -5.1 91 91 N 14 22 30.08 1019 5 8.0467 0 0
2:35 pm 14:35 Cloudy 25 -4 22 -5.3 91 91 N 13 20 30.08 1019 7 11.26538 0 0
2:55 pm 14:55 Cloudy 25 -4.1 22 -5.5 90 90 N 16 26 30.09 1019 10 16.0934 0 0
3:15 pm 15:15 Cloudy 24 -4.3 22 -5.7 90 90 N 15 24 30.11 1020 10 16.0934 0 0
3:35 pm 15:35 Cloudy 25 -4.1 22 -5.5 90 90 N 14 22 30.1 1019 10 16.0934 0 0
4:55 pm 16:55 Cloudy 24 -4.3 21 -6 88 88 N 15 24 30.14 1021 10 16.0934 0 0
8:35 pm 20:35 Cloudy 22 -5.6 18 -8 83 83 NNW 17 28 30.23 1024 10 16.0934 0 0
8:55 pm 20:55 Cloudy 22 -5.8 17 -8.2 83 83 N 16 26 30.24 1024 10 16.0934 0 0
9:15 pm 21:15 Cloudy 22 -5.8 17 -8.3 83 83 N 16 26 30.27 1025 10 16.0934 0 0
9:35 pm 21:35 Cloudy 22 -5.8 17 -8.4 82 82 NNW 14 22 30.27 1025 10 16.0934 0 0
9:55 pm 21:55 Cloudy 22 -5.6 18 -8 83 83 NNW 17 28 30.28 1025 10 16.0934 0 0
10:15 pm 22:15 Cloudy 22 -5.6 17 -8.1 83 83 N 18 30 30.27 1025 10 16.0934 0 0
10:35 pm 22:35 Cloudy 22 -5.6 17 -8.1 83 83 N 17 28 30.28 1025 10 16.0934 0 0
10:55 pm 22:55 Cloudy 22 -5.8 17 -8.2 83 83 N 15 24 30.28 1025 10 16.0934 0 0
11:15 pm 23:15 Cloudy 21 -6 17 -8.3 84 84 N 17 28 30.3 1026 10 16.0934 0 0
11:35 pm 23:35 Cloudy 21 -6 17 -8.2 85 85 N 16 26 30.27 1025 10 16.0934 0 0
11:55 pm 23:55 Cloudy 21 -6 17 -8.4 83 83 N 15 24 30.31 1027 10 16.0934 0 0

Powered by AerisWeather